Station Historical Data
Daily Summary for July 21, 2017 Units:  Metric    English   Both
« Previous Day
Next Day »
Daily Weekly Monthly Yearly Custom
  High: Low: Average:
Temperature: 35.2 °C 24.4 °C 28.4 °C
Dew Point: 24.1 °C 18.7 °C 22.3 °C
Humidity: 90% 42% 72%
Wind Speed: 3.7km/h 0km/h 0.8km/h
Wind Gust: 3.7km/h - -
Wind- - South
Pressure: 1017.8 hPa 1013.8 hPa -
Precipitation: 0 mm    
Historical Graphs
 
 
Tabular Data for July 21, 2017
Time Temperature Dew Point Pressure Wind Wind Speed Wind Gust Humidity Rainfall Rate (Hourly) Conditions
00:00 25.7 °C 22.2 °C 1016.8 hPa Calm     81% 0 mm CLR
00:05 25.7 °C 22.2 °C 1016.8 hPa Calm     81% 0 mm CLR
00:10 25.6 °C 22.3 °C 1016.8 hPa Calm     82% 0 mm CLR
00:15 25.6 °C 22.3 °C 1016.8 hPa Calm     82% 0 mm CLR
00:20 25.5 °C 22.2 °C 1016.8 hPa Calm     82% 0 mm CLR
00:25 25.5 °C 22.4 °C 1016.8 hPa Calm     83% 0 mm CLR
00:30 25.4 °C 22.3 °C 1016.8 hPa Calm     83% 0 mm CLR
00:35 25.4 °C 22.3 °C 1016.8 hPa Calm     83% 0 mm CLR
00:40 25.4 °C 22.5 °C 1016.8 hPa Calm     84% 0 mm CLR
00:45 25.4 °C 22.5 °C 1016.8 hPa Calm     84% 0 mm CLR
00:50 25.3 °C 22.6 °C 1016.8 hPa Calm     85% 0 mm CLR
00:55 25.3 °C 22.6 °C 1016.8 hPa Calm     85% 0 mm CLR
01:00 25.3 °C 22.6 °C 1016.5 hPa Calm     85% 0 mm CLR
01:05 25.3 °C 22.6 °C 1016.5 hPa Calm     85% 0 mm CLR
01:10 25.3 °C 22.6 °C 1016.5 hPa Calm     85% 0 mm CLR
01:15 25.2 °C 22.5 °C 1016.5 hPa Calm     85% 0 mm CLR
01:20 25.2 °C 22.5 °C 1016.5 hPa Calm     85% 0 mm CLR
01:25 25.2 °C 22.7 °C 1016.1 hPa Calm     86% 0 mm CLR
01:30 25.1 °C 22.6 °C 1016.1 hPa Calm     86% 0 mm CLR
01:35 25.1 °C 22.6 °C 1016.1 hPa Calm     86% 0 mm CLR
01:40 25.1 °C 22.6 °C 1016.1 hPa Calm     86% 0 mm CLR
01:45 25.1 °C 22.6 °C 1016.1 hPa Calm     86% 0 mm CLR
01:50 25 °C 22.7 °C 1016.1 hPa Calm     87% 0 mm CLR
01:55 25 °C 22.7 °C 1016.1 hPa Calm     87% 0 mm CLR
02:00 24.4 °C 21.9 °C 1016.1 hPa Calm     86% 0 mm CLR
02:05 24.4 °C 21.9 °C 1016.1 hPa Calm     86% 0 mm CLR
02:10 24.4 °C 21.9 °C 1016.1 hPa Calm     86% 0 mm CLR
02:15 24.4 °C 21.9 °C 1016.1 hPa Calm     86% 0 mm CLR
02:20 24.4 °C 21.9 °C 1016.1 hPa Calm     86% 0 mm CLR
02:25 24.4 °C 21.9 °C 1016.1 hPa Calm     86% 0 mm CLR
02:30 24.4 °C 21.9 °C 1016.1 hPa Calm     86% 0 mm CLR
02:35 24.4 °C 21.9 °C 1015.8 hPa Calm     86% 0 mm CLR
02:40 24.4 °C 21.9 °C 1015.8 hPa Calm     86% 0 mm CLR
02:45 24.4 °C 21.9 °C 1015.8 hPa Calm     86% 0 mm CLR
02:50 24.4 °C 21.9 °C 1015.8 hPa Calm     86% 0 mm CLR
02:55 24.4 °C 21.9 °C 1015.8 hPa Calm     86% 0 mm CLR
03:00 24.4 °C 21.9 °C 1015.8 hPa Calm     86% 0 mm CLR
03:05 24.4 °C 21.9 °C 1015.8 hPa Calm     86% 0 mm CLR
03:10 24.4 °C 21.9 °C 1015.8 hPa Calm     86% 0 mm CLR
03:15 24.4 °C 21.9 °C 1015.8 hPa Calm     86% 0 mm CLR
03:20 24.4 °C 21.9 °C 1015.8 hPa Calm     86% 0 mm CLR
03:25 24.4 °C 21.9 °C 1015.8 hPa Calm     86% 0 mm CLR
03:30 24.4 °C 21.9 °C 1015.8 hPa Calm     86% 0 mm CLR
03:35 24.4 °C 21.9 °C 1015.8 hPa Calm     86% 0 mm CLR
03:40 24.4 °C 21.9 °C 1015.8 hPa Calm     86% 0 mm CLR
03:45 24.4 °C 21.9 °C 1015.8 hPa Calm     86% 0 mm CLR
03:50 24.4 °C 21.9 °C 1015.5 hPa Calm     86% 0 mm CLR
03:55 24.4 °C 21.9 °C 1015.5 hPa Calm     86% 0 mm CLR
04:00 24.4 °C 21.9 °C 1015.8 hPa Calm     86% 0 mm CLR
04:05 24.4 °C 21.9 °C 1015.5 hPa Calm     86% 0 mm CLR
04:10 24.4 °C 21.9 °C 1015.5 hPa Calm     86% 0 mm CLR
04:15 24.4 °C 21.9 °C 1015.5 hPa Calm     86% 0 mm CLR
04:20 24.4 °C 21.9 °C 1015.5 hPa Calm     86% 0 mm CLR
04:25 24.4 °C 21.9 °C 1015.5 hPa Calm     86% 0 mm CLR
04:30 24.4 °C 21.9 °C 1015.5 hPa Calm     86% 0 mm CLR
04:35 24.4 °C 21.9 °C 1015.8 hPa Calm     86% 0 mm CLR
04:40 24.4 °C 21.9 °C 1015.8 hPa Calm     86% 0 mm CLR
04:45 24.4 °C 21.9 °C 1015.8 hPa Calm     86% 0 mm CLR
04:50 24.4 °C 21.9 °C 1015.8 hPa Calm     86% 0 mm CLR
04:55 24.4 °C 21.9 °C 1015.5 hPa Calm     86% 0 mm CLR
05:00 24.4 °C 21.9 °C 1015.5 hPa Calm     86% 0 mm CLR
05:05 24.4 °C 21.9 °C 1015.8 hPa Calm     86% 0 mm CLR
05:10 24.4 °C 21.9 °C 1015.8 hPa Calm     86% 0 mm CLR
05:15 24.4 °C 21.9 °C 1015.8 hPa Calm     86% 0 mm CLR
05:20 24.4 °C 21.9 °C 1015.8 hPa Calm     86% 0 mm CLR
05:25 24.4 °C 21.9 °C 1015.8 hPa Calm     86% 0 mm CLR
05:30 24.4 °C 21.9 °C 1015.8 hPa Calm     86% 0 mm CLR
05:35 24.4 °C 21.9 °C 1015.8 hPa Calm     86% 0 mm CLR
05:40 24.4 °C 21.9 °C 1015.8 hPa Calm     86% 0 mm CLR
05:45 24.4 °C 21.9 °C 1015.8 hPa Calm     86% 0 mm CLR
05:48 24.4 °C 21.9 °C 1015.8 hPa Calm     86% 0 mm CLR
05:53 24.4 °C 21.9 °C 1015.8 hPa Calm     86% 0 mm CLR
05:58 24.4 °C 21.9 °C 1015.8 hPa Calm     86% 0 mm CLR
06:04 24.4 °C 21.9 °C 1015.8 hPa Calm     86% 0 mm CLR
06:09 24.4 °C 21.9 °C 1015.8 hPa Calm     86% 0 mm CLR
06:14 24.4 °C 21.9 °C 1015.8 hPa Calm     86% 0 mm CLR
06:19 24.4 °C 21.9 °C 1015.8 hPa Calm     86% 0 mm CLR
06:24 24.4 °C 21.9 °C 1015.8 hPa Calm     86% 0 mm CLR
06:29 24.4 °C 21.9 °C 1015.8 hPa Calm     86% 0 mm CLR
06:34 24.4 °C 21.9 °C 1016.1 hPa Calm     86% 0 mm CLR
06:39 24.4 °C 21.9 °C 1016.1 hPa Calm     86% 0 mm CLR
06:44 24.4 °C 21.9 °C 1016.1 hPa Calm     86% 0 mm CLR
06:49 24.4 °C 21.9 °C 1016.5 hPa Calm     86% 0 mm CLR
06:54 24.4 °C 21.9 °C 1016.5 hPa Calm     86% 0 mm CLR
06:57 24.4 °C 21.9 °C 1016.5 hPa Calm     86% 0 mm CLR
07:02 24.4 °C 21.9 °C 1016.5 hPa Calm     86% 0 mm CLR
07:07 24.4 °C 21.9 °C 1016.5 hPa Calm     86% 0 mm CLR
07:08 24.4 °C 21.9 °C 1016.5 hPa Calm     86% 0 mm CLR
07:13 24.4 °C 21.9 °C 1016.5 hPa Calm     86% 0 mm FEW
07:18 24.4 °C 21.9 °C 1016.5 hPa Calm     86% 0 mm FEW
07:23 24.4 °C 21.9 °C 1016.5 hPa Calm     86% 0 mm FEW
07:28 24.4 °C 21.9 °C 1016.8 hPa Calm     86% 0 mm FEW
07:33 24.4 °C 21.9 °C 1016.8 hPa Calm     86% 0 mm FEW
07:38 24.4 °C 21.9 °C 1016.8 hPa Calm     86% 0 mm FEW
07:43 24.4 °C 21.9 °C 1016.8 hPa Calm     86% 0 mm FEW
07:48 24.4 °C 21.9 °C 1016.8 hPa Calm     86% 0 mm FEW
07:54 24.4 °C 21.9 °C 1017.2 hPa Calm     86% 0 mm FEW
07:59 24.4 °C 21.9 °C 1017.2 hPa Calm     86% 0 mm FEW
08:04 24.4 °C 21.9 °C 1017.2 hPa Calm     86% 0 mm FEW
08:09 24.4 °C 21.9 °C 1017.2 hPa Calm     86% 0 mm FEW
08:14 24.4 °C 21.9 °C 1017.2 hPa Calm     86% 0 mm FEW
08:19 24.4 °C 21.9 °C 1017.5 hPa Calm     86% 0 mm FEW
08:24 24.4 °C 21.9 °C 1017.5 hPa Calm     86% 0 mm FEW
08:29 24.4 °C 21.9 °C 1017.5 hPa Calm     86% 0 mm FEW
08:34 24.4 °C 21.9 °C 1017.5 hPa Calm     86% 0 mm FEW
08:39 24.8 °C 23.1 °C 1017.5 hPa Calm     90% 0 mm FEW
08:44 24.9 °C 22.8 °C 1017.8 hPa WNW 1.9 km/h   88% 0 mm FEW
08:49 25.1 °C 23 °C 1017.5 hPa WNW 1.9 km/h   88% 0 mm FEW
08:54 25.3 °C 22.9 °C 1017.8 hPa WNW 1.9 km/h   87% 0 mm FEW
08:59 25.4 °C 22.9 °C 1017.8 hPa WNW 1.9 km/h   86% 0 mm FEW
09:04 25.6 °C 23.1 °C 1017.8 hPa North 1.9 km/h   86% 0 mm FEW
09:09 25.7 °C 23 °C 1017.8 hPa NW 1.9 km/h   85% 0 mm FEW
09:14 25.9 °C 23.2 °C 1017.5 hPa NW 1.9 km/h   85% 0 mm FEW
09:19 26.1 °C 23.2 °C 1017.5 hPa NE 1.9 km/h   84% 0 mm FEW
09:25 26.2 °C 23.3 °C 1017.5 hPa NE 1.9 km/h   84% 0 mm FEW
09:30 26.4 °C 23.1 °C 1017.5 hPa SSE 1.9 km/h   82% 0 mm FEW
09:35 26.6 °C 23.3 °C 1017.5 hPa Calm     82% 0 mm FEW
09:40 26.8 °C 23.3 °C 1017.5 hPa Calm     81% 0 mm FEW
09:45 27 °C 23.1 °C 1017.5 hPa Calm     79% 0 mm FEW
09:50 27.2 °C 23 °C 1017.2 hPa SSE 1.9 km/h   78% 0 mm FEW
09:55 27.4 °C 23.4 °C 1017.5 hPa Calm     79% 0 mm FEW
10:00 27.6 °C 23.2 °C 1017.5 hPa Calm     77% 0 mm FEW
10:05 27.7 °C 23.3 °C 1017.5 hPa Calm     77% 0 mm FEW
10:10 28 °C 23.1 °C 1017.5 hPa Calm     75% 0 mm FEW
10:15 28.2 °C 22.9 °C 1017.5 hPa Calm     73% 0 mm FEW
10:20 28.5 °C 23.6 °C 1017.2 hPa Calm     75% 0 mm FEW
10:25 28.8 °C 23.7 °C 1017.2 hPa Calm     74% 0 mm FEW
10:30 29.2 °C 23.7 °C 1017.2 hPa Calm     72% 0 mm FEW
10:35 29.7 °C 23.4 °C 1017.2 hPa Calm     69% 0 mm FEW
10:40 29.9 °C 23.9 °C 1017.2 hPa Calm     70% 0 mm FEW
10:45 30.1 °C 24 °C 1017.2 hPa Calm     70% 0 mm FEW
10:50 30 °C 23.4 °C 1017.2 hPa NE 1.9 km/h   68% 0 mm FEW
10:55 30.1 °C 23.5 °C 1017.2 hPa Calm     68% 0 mm FEW
11:00 30.2 °C 23.7 °C 1017.2 hPa Calm     68% 0 mm FEW
11:05 30.4 °C 23.9 °C 1017.2 hPa Calm     68% 0 mm FEW
11:10 30.6 °C 23.8 °C 1017.2 hPa Calm   1.6 km/h 67% 0 mm FEW
11:15 30.6 °C 23.6 °C 1017.2 hPa Calm     66% 0 mm FEW
11:20 30.7 °C 24.1 °C 1017.2 hPa Calm   1.6 km/h 68% 0 mm FEW
11:25 30.7 °C 23.4 °C 1017.2 hPa Calm   1.6 km/h 65% 0 mm FEW
11:30 30.5 °C 23.2 °C 1017.2 hPa NNE 1.9 km/h   65% 0 mm FEW
11:35 30.4 °C 23.1 °C 1017.2 hPa Calm   1.6 km/h 65% 0 mm FEW
11:40 30.6 °C 23.2 °C 1017.2 hPa Calm   1.6 km/h 65% 0 mm FEW
11:41 30.6 °C 22.8 °C 1017.2 hPa North 1.9 km/h   63% 0 mm FEW
11:46 30.7 °C 23.4 °C 1017.2 hPa NE 1.9 km/h   65% 0 mm FEW
11:51 30.8 °C 22.7 °C 1017.2 hPa NE 1.9 km/h   62% 0 mm FEW
11:56 30.7 °C 22.9 °C 1017.2 hPa NE 1.9 km/h 1.9 km/h 63% 0 mm FEW
12:01 30.6 °C 22.8 °C 1017.2 hPa NE 1.9 km/h   63% 0 mm FEW
12:06 30.6 °C 23.6 °C 1017.2 hPa NE 1.9 km/h   66% 0 mm FEW
12:08 30.6 °C 23.6 °C 1017.2 hPa NE 1.9 km/h   66% 0 mm FEW
12:13 30.4 °C 23.4 °C 1017.2 hPa NE 1.9 km/h   66% 0 mm FEW
12:18 30.4 °C 23.1 °C 1017.2 hPa NE 1.9 km/h   65% 0 mm FEW
12:23 30.5 °C 22.7 °C 1016.8 hPa NE 1.9 km/h   63% 0 mm FEW
12:28 30.8 °C 22.9 °C 1016.8 hPa NNW 1.9 km/h   63% 0 mm FEW
12:33 30.9 °C 23.1 °C 1016.8 hPa NNW 1.9 km/h   63% 0 mm FEW
12:38 31.3 °C 22.3 °C 1016.8 hPa NNW 1.9 km/h 1.9 km/h 59% 0 mm FEW
12:43 31.7 °C 22.4 °C 1017.2 hPa NNW 1.9 km/h   58% 0 mm FEW
12:49 32.1 °C 23.1 °C 1017.2 hPa North 1.9 km/h 1.9 km/h 59% 0 mm FEW
12:54 32.2 °C 22.8 °C 1017.2 hPa NE 1.9 km/h   58% 0 mm FEW
12:59 32.6 °C 22.1 °C 1016.8 hPa NNE 1.9 km/h   54% 0 mm FEW
13:04 33.3 °C 22.1 °C 1016.8 hPa NNW 1.9 km/h   52% 0 mm FEW
13:09 33.6 °C 21.4 °C 1016.8 hPa NW 1.9 km/h   49% 0 mm FEW
13:14 33.7 °C 20.8 °C 1016.8 hPa NW 1.9 km/h   47% 0 mm FEW
13:19 34 °C 21.1 °C 1016.5 hPa North 1.9 km/h   47% 0 mm FEW
13:24 34.1 °C 21.2 °C 1016.5 hPa WNW 1.9 km/h   47% 0 mm FEW
13:29 34.3 °C 22.1 °C 1016.5 hPa WNW 1.9 km/h   49% 0 mm FEW
13:34 34.4 °C 20.4 °C 1016.5 hPa NW 3.7 km/h   44% 0 mm FEW
13:39 34.6 °C 20.9 °C 1016.5 hPa NNW 3.7 km/h   45% 0 mm FEW
13:44 34.7 °C 21.8 °C 1016.5 hPa NNW 3.7 km/h   47% 0 mm FEW
13:49 34.7 °C 21.3 °C 1016.1 hPa NNE 3.7 km/h   46% 0 mm FEW
13:54 34.6 °C 20.5 °C 1016.1 hPa SSW 3.7 km/h 3.7 km/h 44% 0 mm FEW
13:59 34.6 °C 21.6 °C 1016.1 hPa West 3.7 km/h   47% 0 mm FEW
14:01 34.6 °C 21.7 °C 1016.1 hPa West 3.7 km/h   47% 0 mm FEW
14:06 34.9 °C 22.7 °C 1016.1 hPa West 3.7 km/h   49% 0 mm FEW
14:11 35.2 °C 21.1 °C 1015.8 hPa NW 3.7 km/h 3.7 km/h 44% 0 mm FEW
14:16 34.8 °C 21.1 °C 1015.8 hPa NNW 3.7 km/h   45% 0 mm FEW
14:21 34.7 °C 22.7 °C 1015.8 hPa NNW 3.7 km/h   50% 0 mm FEW
14:26 34.4 °C 20.8 °C 1015.8 hPa NNW 3.7 km/h   45% 0 mm FEW
14:31 34.1 °C 20.5 °C 1015.8 hPa SSW 3.7 km/h 3.7 km/h 45% 0 mm FEW
14:36 33.9 °C 21.4 °C 1015.8 hPa SSW 3.7 km/h   48% 0 mm FEW
14:41 34 °C 22.4 °C 1015.8 hPa SSW 3.7 km/h 3.7 km/h 51% 0 mm FEW
14:46 33.9 °C 21.3 °C 1015.5 hPa SSW 3.7 km/h   48% 0 mm FEW
14:51 33.8 °C 22.6 °C 1015.5 hPa SSW 3.7 km/h   52% 0 mm FEW
14:56 33.8 °C 20.2 °C 1015.5 hPa ESE 3.7 km/h 3.7 km/h 45% 0 mm FEW
15:01 33.4 °C 20.6 °C 1015.5 hPa ESE 3.7 km/h   47% 0 mm FEW
15:06 33.4 °C 20.2 °C 1015.5 hPa WNW 3.7 km/h 3.7 km/h 46% 0 mm FEW
15:11 33.5 °C 20.3 °C 1015.5 hPa WNW 3.7 km/h 3.7 km/h 46% 0 mm FEW
15:16 33.4 °C 20.2 °C 1015.5 hPa WNW 3.7 km/h   46% 0 mm FEW
15:21 33.3 °C 20.5 °C 1015.1 hPa WNW 3.7 km/h   47% 0 mm FEW
15:26 33.3 °C 20.2 °C 1015.1 hPa WNW 3.7 km/h   46% 0 mm FEW
15:32 33.4 °C 20.2 °C 1015.1 hPa WNW 3.7 km/h 3.7 km/h 46% 0 mm FEW
15:37 33.4 °C 19.1 °C 1014.8 hPa ENE 3.7 km/h 3.7 km/h 43% 0 mm FEW
15:42 33.3 °C 18.7 °C 1014.8 hPa ENE 3.7 km/h   42% 0 mm FEW
15:47 33.3 °C 20.5 °C 1014.8 hPa ENE 3.7 km/h   47% 0 mm FEW
15:52 33.2 °C 21.1 °C 1014.4 hPa ENE 3.7 km/h 3.7 km/h 49% 0 mm FEW
15:57 33.2 °C 21.1 °C 1014.4 hPa ENE 3.7 km/h 3.7 km/h 49% 0 mm FEW
16:02 33.2 °C 20.7 °C 1014.8 hPa ENE 3.7 km/h   48% 0 mm FEW
16:07 33.2 °C 21.7 °C 1014.4 hPa ENE 3.7 km/h   51% 0 mm FEW
16:12 33 °C 19.8 °C 1014.4 hPa ENE 3.7 km/h   46% 0 mm FEW
16:17 33 °C 21.2 °C 1014.4 hPa ENE 3.7 km/h 3.7 km/h 50% 0 mm FEW
16:22 32.8 °C 21.3 °C 1014.1 hPa ENE 3.7 km/h   51% 0 mm SCT
16:27 32.7 °C 21.5 °C 1014.1 hPa East 3.7 km/h   52% 0 mm SCT
16:33 32.5 °C 21.4 °C 1014.1 hPa East 3.7 km/h   52% 0 mm SCT
16:38 32.2 °C 20.8 °C 1014.1 hPa East 3.7 km/h   51% 0 mm SCT
16:39 32.1 °C 21.3 °C 1014.1 hPa East 3.7 km/h   53% 0 mm SCT
16:45 32.1 °C 21.6 °C 1014.1 hPa Calm     54% 0 mm SCT
16:50 32.3 °C 21.8 °C 1014.1 hPa Calm     54% 0 mm SCT
16:55 32.6 °C 21.1 °C 1014.4 hPa Calm   1.6 km/h 51% 0 mm SCT
17:00 32.8 °C 20.4 °C 1014.4 hPa Calm   1.6 km/h 48% 0 mm SCT
17:05 33 °C 21.5 °C 1014.4 hPa Calm     51% 0 mm SCT
17:10 33.2 °C 20.1 °C 1014.4 hPa Calm     46% 0 mm SCT
17:15 33.3 °C 21.2 °C 1014.4 hPa Calm     49% 0 mm SCT
17:20 33.3 °C 21.8 °C 1014.4 hPa Calm     51% 0 mm SCT
17:25 33.3 °C 21.5 °C 1014.4 hPa Calm   1.6 km/h 50% 0 mm SCT
17:30 32.9 °C 22.1 °C 1014.4 hPa Calm     53% 0 mm SCT
17:35 32.6 °C 22.3 °C 1014.4 hPa Calm   3.2 km/h 55% 0 mm SCT
17:40 32.3 °C 22.1 °C 1014.4 hPa Calm   1.6 km/h 55% 0 mm SCT
17:45 32.4 °C 22.8 °C 1014.4 hPa Calm     57% 0 mm SCT
17:50 32.4 °C 23.1 °C 1014.1 hPa Calm   1.6 km/h 58% 0 mm SCT
17:55 32.4 °C 22.8 °C 1014.1 hPa Calm   1.6 km/h 57% 0 mm SCT
18:00 32.4 °C 22.8 °C 1014.1 hPa East 3.7 km/h 3.7 km/h 57% 0 mm SCT
18:05 32.3 °C 23 °C 1014.1 hPa Calm     58% 0 mm SCT
18:10 32.4 °C 23.1 °C 1014.1 hPa Calm     58% 0 mm SCT
18:15 32.5 °C 23.2 °C 1014.1 hPa Calm     58% 0 mm SCT
18:20 32.4 °C 23.4 °C 1014.1 hPa Calm     59% 0 mm SCT
18:25 32.4 °C 23.1 °C 1014.1 hPa Calm     58% 0 mm SCT
18:30 32.4 °C 23.1 °C 1014.1 hPa NW 3.7 km/h   58% 0 mm SCT
18:35 32.3 °C 23.3 °C 1013.8 hPa Calm     59% 0 mm SCT
18:40 32 °C 23.6 °C 1013.8 hPa Calm     61% 0 mm SCT
18:45 31.7 °C 23.8 °C 1013.8 hPa Calm     63% 0 mm SCT
18:50 31.6 °C 23.1 °C 1013.8 hPa Calm     61% 0 mm SCT
18:55 31.4 °C 23.3 °C 1014.1 hPa Calm     62% 0 mm SCT
19:00 31.2 °C 23.6 °C 1014.1 hPa East 3.7 km/h   64% 0 mm SCT
19:05 31.1 °C 23.5 °C 1014.1 hPa Calm     64% 0 mm SCT
19:10 31.1 °C 23.2 °C 1014.1 hPa Calm     63% 0 mm SCT
19:15 31.1 °C 23.2 °C 1014.1 hPa Calm     63% 0 mm SCT
19:20 31 °C 22.8 °C 1014.1 hPa Calm     62% 0 mm SCT
19:25 30.8 °C 22.9 °C 1014.1 hPa Calm     63% 0 mm SCT
19:30 30.7 °C 22.8 °C 1014.1 hPa Calm     63% 0 mm SCT
19:35 30.5 °C 22.9 °C 1014.1 hPa Calm     64% 0 mm SCT
19:40 30.3 °C 22.8 °C 1014.1 hPa Calm     64% 0 mm SCT
19:45 30.2 °C 22.7 °C 1014.4 hPa Calm     64% 0 mm SCT
19:50 30.1 °C 22.8 °C 1014.4 hPa Calm     65% 0 mm SCT
19:55 29.9 °C 22.4 °C 1014.4 hPa Calm     64% 0 mm SCT
20:00 29.8 °C 22.3 °C 1014.4 hPa Calm     64% 0 mm SCT
20:05 29.7 °C 22.1 °C 1014.8 hPa Calm     64% 0 mm SCT
20:10 29.5 °C 22.2 °C 1014.8 hPa Calm     65% 0 mm SCT
20:15 29.3 °C 22.3 °C 1014.8 hPa Calm     66% 0 mm SCT
20:20 29.2 °C 21.9 °C 1014.8 hPa Calm     65% 0 mm SCT
20:25 29.1 °C 22.1 °C 1014.8 hPa Calm     66% 0 mm BKN
20:30 29 °C 22 °C 1014.8 hPa Calm     66% 0 mm BKN
20:35 28.9 °C 22.2 °C 1014.8 hPa Calm     67% 0 mm BKN
20:40 28.9 °C 22.4 °C 1014.8 hPa Calm     68% 0 mm BKN
20:45 28.8 °C 22.3 °C 1015.1 hPa Calm     68% 0 mm BKN
20:50 28.7 °C 22.2 °C 1015.1 hPa Calm     68% 0 mm BKN
20:55 28.7 °C 22.4 °C 1015.1 hPa Calm     69% 0 mm BKN
21:00 28.6 °C 22.3 °C 1015.1 hPa Calm     69% 0 mm BKN
21:05 28.5 °C 22.5 °C 1015.1 hPa Calm     70% 0 mm BKN
21:10 28.4 °C 22.7 °C 1015.5 hPa ESE 3.7 km/h   71% 0 mm BKN
21:15 28.3 °C 22.6 °C 1015.5 hPa Calm     71% 0 mm BKN
21:20 28.3 °C 22.7 °C 1015.5 hPa Calm     72% 0 mm BKN
21:25 28.2 °C 22.7 °C 1015.5 hPa Calm     72% 0 mm BKN
21:30 28.1 °C 22.8 °C 1015.5 hPa ESE 3.7 km/h   73% 0 mm BKN
21:35 28.1 °C 23.1 °C 1015.5 hPa ESE 3.7 km/h   74% 0 mm BKN
21:40 28.1 °C 23.1 °C 1015.5 hPa Calm     74% 0 mm BKN
21:45 28.1 °C 22.8 °C 1015.5 hPa Calm     73% 0 mm BKN
21:50 28.1 °C 23 °C 1015.5 hPa Calm     74% 0 mm BKN
21:55 28 °C 22.9 °C 1015.5 hPa Calm     74% 0 mm BKN
22:00 27.9 °C 23.1 °C 1015.5 hPa ESE 3.7 km/h   75% 0 mm BKN
22:05 27.8 °C 23.2 °C 1015.5 hPa Calm     76% 0 mm BKN
22:10 27.7 °C 23.1 °C 1015.5 hPa Calm     76% 0 mm BKN
22:15 27.7 °C 23.1 °C 1015.5 hPa Calm     76% 0 mm FEW
22:20 27.6 °C 23.2 °C 1015.5 hPa ESE 3.7 km/h   77% 0 mm FEW
22:25 27.4 °C 23.1 °C 1015.5 hPa Calm     77% 0 mm FEW
22:30 27.4 °C 23 °C 1015.8 hPa Calm     77% 0 mm FEW
22:35 27.3 °C 22.9 °C 1015.5 hPa Calm     77% 0 mm FEW
22:40 27.3 °C 23.1 °C 1015.5 hPa Calm     78% 0 mm FEW
22:45 27.2 °C 23.1 °C 1015.5 hPa Calm     78% 0 mm FEW
22:50 27.2 °C 23 °C 1015.5 hPa Calm     78% 0 mm FEW
22:55 27.1 °C 23.1 °C 1015.5 hPa Calm     79% 0 mm FEW
23:00 27 °C 23.1 °C 1015.5 hPa Calm     79% 0 mm FEW
23:05 27 °C 23.1 °C 1015.5 hPa Calm     79% 0 mm FEW
23:10 26.9 °C 23.2 °C 1015.5 hPa ESE 3.7 km/h   80% 0 mm FEW
23:15 26.9 °C 23.2 °C 1015.5 hPa Calm     80% 0 mm CLR
23:20 26.8 °C 23.1 °C 1015.5 hPa Calm     80% 0 mm CLR
23:25 26.7 °C 22.9 °C 1015.5 hPa Calm     80% 0 mm CLR
23:30 26.6 °C 23.1 °C 1015.5 hPa Calm     81% 0 mm CLR
23:35 26.6 °C 23 °C 1015.5 hPa Calm     81% 0 mm CLR
23:40 26.4 °C 23.1 °C 1015.5 hPa Calm     82% 0 mm CLR
23:45 26.3 °C 22.9 °C 1015.5 hPa ESE 3.7 km/h   82% 0 mm CLR
23:50 26.2 °C 23.1 °C 1015.5 hPa Calm     83% 0 mm CLR
23:55 26.2 °C 23.1 °C 1015.8 hPa Calm     83% 0 mm CLR
Piedmont Bend
Compliments of Weather Underground - 4 mb